User: anonymous   Login
Location: Montr�al
(45.5000°N, 73.5830°W)
Time: 06:11:28
(UTC-04:00)
Language:

Cosmos 1470 Rocket - Orbit

View from above orbital plane
View from above orbital plane
View from above satellite
View from above satellite

Ground track
Ground track

The orbit data is extracted from the following two-line orbital elements,

1 14148U 83061B   16210.65429192  .00000102  00000-0  95854-5 0  9993
2 14148  82.5171 212.5926 0020611 322.6343 155.5034 14.83175744786888
Epoch (UTC): 28 July 2016 15:42:10
Eccentricity: 0.0020611
inclination: 82.5171°
perigee height: 605 km
apogee height: 634 km
right ascension of ascending node: 212.5926°
argument of perigee: 322.6343°
revolutions per day: 14.83175744
mean anomaly at epoch: 155.5034°
orbit number at epoch: 78688

The dashed part of the orbit path shows where the satellite is in the earth's shadow,  

DLR